Location: Plymouth
(43.7570°N, 71.6890°W)
Time: 09:57:18
(UTC-04:00)

Amateur Radio Satellites - All Passes

Search period start: 23 July 2014 09:27
Search period end: 24 July 2014 09:27
Location: Plymouth, 43.7570°N, 71.6890°W

Satellite Date Start Highest point End Downlink Frequencies (MHz)
Time Altitude Azimuth
KITSAT 1 23 Jul 09:38:11 09:45:19 33° 321° (NW) 09:52:30 435.175 FM
PCSat 23 Jul 09:42:54 09:46:55 20° 41° (NE) 09:50:54 145.825 MHz
MaSat-1 23 Jul 10:00:37 10:01:47 11° 263° (W) 10:02:57 437.345 MHz
Oscar 11 23 Jul 10:10:45 10:14:50 39° 98° (E) 10:18:54 145.825 FM, Beacon 2401.500 USB
Saudisat 1A 23 Jul 10:12:08 10:16:22 44° 311° (NW) 10:20:37 436.775 MHz
FUNcube-1 23 Jul 10:15:19 10:17:53 16° 92° (E) 10:20:27 145.950 - 145.970 MHz USB
HO-68 23 Jul 10:47:41 10:54:40 58° 293° (WNW) 11:01:36 435.675 MHz FM
Sapphire 23 Jul 10:51:27 10:56:47 53° 54° (NE) 11:02:04 437.095 MHz 1200 baud AX-25 AFSK
UKube-1 23 Jul 10:54:44 10:58:45 37° 291° (WNW) 11:02:45 145.840 MHz, 145.915 MHz
PCSat 23 Jul 11:25:32 11:31:00 81° 241° (WSW) 11:36:24 145.825 MHz
KITSAT 1 23 Jul 11:39:19 11:43:45 15° 349° (N) 11:48:10 435.175 FM
Oscar 11 23 Jul 11:47:33 11:50:47 21° 295° (WNW) 11:54:00 145.825 FM, Beacon 2401.500 USB
FUNcube-1 23 Jul 11:50:34 11:54:33 45° 288° (WNW) 11:58:31 145.950 - 145.970 MHz USB
JAS-1B 23 Jul 12:19:24 12:24:45 17° 44° (NE) 12:30:20 435.800 - 435.900 CW/SSB
Oscar 19 23 Jul 12:20:20 12:24:09 22° 63° (ENE) 12:28:00 437.125 CW, 437.150 USB
RS-15 23 Jul 12:21:20 12:25:20 13° 95° (E) 12:29:18 29.354 - 29.394 USB, Beacon 29.352 USB
Sapphire 23 Jul 12:35:34 12:39:51 24° 252° (WSW) 12:44:06 437.095 MHz 1200 baud AX-25 AFSK
HO-68 23 Jul 12:38:04 12:40:54 13° 313° (NW) 12:43:44 435.675 MHz FM
Oscar 16 23 Jul 12:46:31 12:51:12 38° 68° (ENE) 12:55:55 437.025 USB, Beacon 2401.1428
ITAMSAT 1 23 Jul 12:55:12 12:59:11 23° 62° (ENE) 13:03:09 435.822 SSB
Gurwin Techsat 1B 23 Jul 13:02:41 13:04:16 11° 55° (NE) 13:05:51 435.225 FM
AO-27 23 Jul 13:12:00 13:16:33 31° 66° (ENE) 13:21:07 436.795 MHz FM
PCSat 23 Jul 13:12:03 13:13:29 11° 259° (WSW) 13:14:55 145.825 MHz
Uribyol 2 23 Jul 13:15:26 13:20:06 35° 67° (ENE) 13:24:46 436.500 FM
AO-Echo 23 Jul 13:24:35 13:29:28 40° 68° (ENE) 13:34:25 ?
SO-50 23 Jul 13:34:33 13:38:23 29° 114° (ESE) 13:42:16 436.795 FM
KITSAT 1 23 Jul 13:37:50 13:43:04 18° 20° (NNE) 13:48:17 435.175 FM
Oscar 19 23 Jul 13:58:10 14:03:08 52° 260° (W) 14:08:09 437.125 CW, 437.150 USB
JAS-1B 23 Jul 14:04:43 14:13:07 60° 67° (ENE) 14:22:37 435.800 - 435.900 CW/SSB
AO-7 23 Jul 14:14:42 14:20:40 22° 49° (NE) 14:26:37 29.400 - 29.500 MHz
TMSAT-1 23 Jul 14:18:16 14:23:05 37° 67° (ENE) 14:27:55 436.925 FM
RS-15 23 Jul 14:24:23 14:35:17 63° 116° (ESE) 14:45:58 29.354 - 29.394 USB, Beacon 29.352 USB
Oscar 16 23 Jul 14:26:16 14:30:38 28° 265° (W) 14:35:01 437.025 USB, Beacon 2401.1428
ITAMSAT 1 23 Jul 14:33:14 14:38:19 52° 260° (W) 14:43:25 435.822 SSB
Gurwin Techsat 1B 23 Jul 14:38:01 14:43:18 74° 74° (ENE) 14:48:38 435.225 FM
AO-27 23 Jul 14:51:13 14:55:59 36° 263° (W) 15:00:47 436.795 MHz FM
Uribyol 2 23 Jul 14:54:56 14:59:33 32° 264° (W) 15:04:12 436.500 FM
AO-Echo 23 Jul 15:03:47 15:08:18 29° 266° (W) 15:12:53 ?
SO-50 23 Jul 15:14:39 15:18:49 37° 313° (NW) 15:23:05 436.795 FM
Uosat F 23 Jul 15:16:46 15:21:09 31° 66° (ENE) 15:25:33 435.120 FM
KITSAT 1 23 Jul 15:33:03 15:40:49 47° 47° (NE) 15:48:31 435.175 FM
OPAL 23 Jul 15:45:51 15:49:01 17° 93° (E) 15:52:12 ?
JAS-2 23 Jul 15:48:44 15:49:58 10° 48° (NE) 15:51:12 435.800 - 435.900 CW/SSB, 435.910 FM
JAS-1B 23 Jul 15:56:17 16:04:00 37° 269° (W) 16:12:43 435.800 - 435.900 CW/SSB
TMSAT-1 23 Jul 15:58:23 16:03:02 31° 265° (W) 16:07:42 436.925 FM
AO-7 23 Jul 16:03:56 16:12:19 85° 70° (ENE) 16:20:44 29.400 - 29.500 MHz
UOSAT-12 23 Jul 16:08:50 16:13:24 70° 122° (ESE) 16:18:05 437.025 FM, 437.400 FM
Gurwin Techsat 1B 23 Jul 16:20:53 16:23:50 15° 271° (W) 16:26:48 435.225 FM
RS-15 23 Jul 16:37:40 16:48:08 46° 321° (NW) 16:58:33 29.354 - 29.394 USB, Beacon 29.352 USB
Hamsat 23 Jul 16:53:04 16:55:52 18° 65° (ENE) 16:58:41 145.90 MHz
Uosat F 23 Jul 16:55:17 16:59:52 34° 263° (W) 17:04:28 435.120 FM
Saudisat 1A 23 Jul 16:58:17 17:02:12 30° 45° (NE) 17:06:06 436.775 MHz
OPAL 23 Jul 17:23:20 17:28:19 64° 290° (WNW) 17:33:20 ?
JAS-2 23 Jul 17:25:57 17:33:20 47° 67° (ENE) 17:40:23 435.800 - 435.900 CW/SSB, 435.910 FM
KITSAT 1 23 Jul 17:28:38 17:36:15 47° 248° (WSW) 17:43:49 435.175 FM
UOSAT-12 23 Jul 17:50:34 17:54:03 20° 322° (NW) 17:57:35 437.025 FM, 437.400 FM
AO-7 23 Jul 18:00:01 18:06:01 21° 269° (W) 18:12:05 29.400 - 29.500 MHz
SO-67 23 Jul 18:18:00 18:20:31 19° 68° (ENE) 18:23:04 435.3500 MHz FM
Hamsat 23 Jul 18:27:32 18:31:31 43° 262° (W) 18:35:32 145.90 MHz
Saudisat 1A 23 Jul 18:37:48 18:41:50 35° 244° (WSW) 18:45:49 436.775 MHz
RS-15 23 Jul 18:55:40 19:04:12 25° 354° (N) 19:12:47 29.354 - 29.394 USB, Beacon 29.352 USB
Oscar 10/S400 23 Jul 18:59:41 19:13:05 21° 138° (SE) 19:31:04 145.825 - 145.975 CW/USB, Beacon 145.810 USB
JAS-2 23 Jul 19:11:00 19:18:19 42° 264° (W) 19:25:26 435.800 - 435.900 CW/SSB, 435.910 FM
HO-68 23 Jul 19:31:10 19:36:54 27° 57° (ENE) 19:42:39 435.675 MHz FM
STRAND 1 23 Jul 19:36:33 19:41:42 73° 103° (ESE) 19:46:46 ?
SO-67 23 Jul 19:50:31 19:53:27 26° 264° (W) 19:56:25 435.3500 MHz FM
UKube-1 23 Jul 20:16:01 20:19:29 24° 65° (ENE) 20:22:59 145.840 MHz, 145.915 MHz
SO-50 23 Jul 20:26:07 20:26:53 10° 27° (NNE) 20:27:38 436.795 FM
Oscar 11 23 Jul 21:07:07 21:11:04 37° 70° (ENE) 21:15:02 145.825 FM, Beacon 2401.500 USB
RS-15 23 Jul 21:11:20 21:21:02 34° 29° (NNE) 21:30:55 29.354 - 29.394 USB, Beacon 29.352 USB
FUNcube-1 23 Jul 21:13:24 21:16:14 17° 64° (ENE) 21:19:03 145.950 - 145.970 MHz USB
HO-68 23 Jul 21:16:54 21:24:03 68° 256° (WSW) 21:31:13 435.675 MHz FM
STRAND 1 23 Jul 21:17:13 21:20:17 16° 301° (WNW) 21:23:21 ?
UKube-1 23 Jul 21:51:31 21:55:31 35° 262° (W) 21:59:33 145.840 MHz, 145.915 MHz
SO-50 23 Jul 22:04:12 22:08:42 41° 48° (NE) 22:13:15 436.795 FM
MaSat-1 23 Jul 22:13:21 22:16:54 34° 107° (ESE) 22:21:01 437.345 MHz
Oscar 11 23 Jul 22:44:06 22:47:23 21° 267° (W) 22:50:40 145.825 FM, Beacon 2401.500 USB
FUNcube-1 23 Jul 22:48:02 22:52:18 49° 260° (W) 22:56:29 145.950 - 145.970 MHz USB
UOSAT-12 23 Jul 22:58:07 23:01:12 17° 35° (NE) 23:04:16 437.025 FM, 437.400 FM
HO-68 23 Jul 23:11:05 23:13:01 11° 275° (W) 23:14:57 435.675 MHz FM
RS-15 23 Jul 23:24:00 23:35:05 86° 56° (NE) 23:46:34 29.354 - 29.394 USB, Beacon 29.352 USB
SO-50 23 Jul 23:45:05 23:49:08 28° 246° (WSW) 23:53:12 436.795 FM
Lituanica SAT-1 23 Jul 23:48:10 23:49:38 16° 138° (SE) 23:51:07 437.275 MHz beacon
MaSat-1 23 Jul 23:50:50 23:54:21 26° 310° (NW) 23:58:20 437.345 MHz
UOSAT-12 24 Jul 00:37:18 00:42:04 86° 55° (NE) 00:46:46 437.025 FM, 437.400 FM
Oscar 16 24 Jul 00:59:01 01:00:42 12° 88° (E) 01:02:23 437.025 USB, Beacon 2401.1428
Lituanica SAT-1 24 Jul 01:20:19 01:22:18 32° 334° (NNW) 01:24:19 437.275 MHz beacon
ISS 24 Jul 01:22:48 01:25:47 31° 138° (SE) 01:28:47 145.800 FM
AO-Echo 24 Jul 01:33:25 01:34:41 11° 86° (E) 01:35:57 ?
Sapphire 24 Jul 01:34:53 01:39:46 36° 111° (ESE) 01:44:41 437.095 MHz 1200 baud AX-25 AFSK
RS-15 24 Jul 01:37:41 01:46:07 26° 257° (WSW) 01:54:49 29.354 - 29.394 USB, Beacon 29.352 USB
JAS-1B 24 Jul 01:51:18 01:57:32 19° 82° (E) 02:03:16 435.800 - 435.900 CW/SSB
Oscar 19 24 Jul 02:08:15 02:13:16 50° 100° (E) 02:18:17 437.125 CW, 437.150 USB
PCSat 24 Jul 02:08:17 02:13:40 74° 118° (ESE) 02:19:05 145.825 MHz
UOSAT-12 24 Jul 02:19:42 02:21:31 12° 253° (WSW) 02:23:19 437.025 FM, 437.400 FM
TMSAT-1 24 Jul 02:34:32 02:36:44 13° 88° (E) 02:38:56 436.925 FM
Oscar 16 24 Jul 02:35:33 02:40:44 88° 285° (WNW) 02:45:54 437.025 USB, Beacon 2401.1428
ITAMSAT 1 24 Jul 02:44:43 02:49:46 51° 100° (E) 02:54:47 435.822 SSB
Gurwin Techsat 1B 24 Jul 02:53:28 02:57:55 27° 94° (E) 03:02:20 435.225 FM
Lituanica SAT-1 24 Jul 02:54:44 02:55:36 12° 353° (N) 02:56:28 437.275 MHz beacon
ISS 24 Jul 02:59:13 03:02:27 43° 336° (NNW) 03:05:41 145.800 FM
OPAL 24 Jul 03:01:37 03:06:04 35° 65° (ENE) 03:10:32 ?
AO-27 24 Jul 03:02:20 03:07:33 75° 103° (ESE) 03:12:43 436.795 MHz FM
Uribyol 2 24 Jul 03:05:34 03:10:46 83° 104° (ESE) 03:15:56 436.500 FM
AO-Echo 24 Jul 03:09:02 03:14:14 89° 104° (ESE) 03:19:15 ?
Sapphire 24 Jul 03:18:11 03:23:10 37° 310° (NW) 03:28:12 437.095 MHz 1200 baud AX-25 AFSK
JAS-1B 24 Jul 03:39:48 03:49:37 81° 104° (ESE) 03:58:09 435.800 - 435.900 CW/SSB
Oscar 19 24 Jul 03:48:20 03:52:17 23° 297° (WNW) 03:56:13 437.125 CW, 437.150 USB
PCSat 24 Jul 03:53:31 03:57:39 22° 318° (NW) 04:01:49 145.825 MHz
AO-7 24 Jul 04:05:01 04:11:40 26° 93° (E) 04:18:14 29.400 - 29.500 MHz
TMSAT-1 24 Jul 04:12:00 04:17:20 85° 285° (WNW) 04:22:37 436.925 FM
Oscar 16 24 Jul 04:17:02 04:19:19 13° 303° (WNW) 04:21:37 437.025 USB, Beacon 2401.1428
ITAMSAT 1 24 Jul 04:24:57 04:28:55 23° 298° (WNW) 04:32:52 435.822 SSB
Lituanica SAT-1 24 Jul 04:27:47 04:29:04 14° 13° (NNE) 04:30:21 437.275 MHz beacon
Gurwin Techsat 1B 24 Jul 04:33:02 04:38:01 42° 291° (WNW) 04:42:59 435.225 FM
ISS 24 Jul 04:37:08 04:39:47 21° 356° (N) 04:42:27 145.800 FM
OPAL 24 Jul 04:40:41 04:44:58 29° 262° (W) 04:49:17 ?
AO-27 24 Jul 04:43:20 04:46:27 16° 301° (WNW) 04:49:33 436.795 MHz FM
Uribyol 2 24 Jul 04:46:49 04:49:33 15° 302° (WNW) 04:52:17 436.500 FM
AO-Echo 24 Jul 04:49:48 04:52:12 13° 303° (WNW) 04:54:34 ?
Uosat F 24 Jul 05:01:04 05:06:05 66° 102° (ESE) 05:11:04 435.120 FM
STRAND 1 24 Jul 05:17:04 05:20:19 17° 60° (ENE) 05:23:35 ?
JAS-1B 24 Jul 05:31:06 05:38:59 30° 306° (NW) 05:46:16 435.800 - 435.900 CW/SSB
TMSAT-1 24 Jul 05:54:07 05:56:26 13° 303° (WNW) 05:58:46 436.925 FM
AO-7 24 Jul 05:56:50 06:05:10 74° 292° (WNW) 06:13:25 29.400 - 29.500 MHz
Lituanica SAT-1 24 Jul 06:00:01 06:02:11 74° 31° (NNE) 06:04:19 437.275 MHz beacon
KITSAT 1 24 Jul 06:04:45 06:10:46 24° 104° (ESE) 06:16:46 435.175 FM
Hamsat 24 Jul 06:11:58 06:15:42 29° 95° (E) 06:19:27 145.90 MHz
ISS 24 Jul 06:14:17 06:17:16 28° 16° (NNE) 06:20:14 145.800 FM
JAS-2 24 Jul 06:20:30 06:25:53 30° 92° (E) 06:30:45 435.800 - 435.900 CW/SSB, 435.910 FM
MaSat-1 24 Jul 06:30:18 06:34:13 20° 46° (NE) 06:38:06 437.345 MHz
Uosat F 24 Jul 06:41:08 06:44:21 17° 300° (WNW) 06:47:33 435.120 FM
STRAND 1 24 Jul 06:53:49 06:58:57 70° 257° (WSW) 07:04:07 ?
SO-67 24 Jul 07:13:16 07:15:48 19° 93° (E) 07:18:20 435.3500 MHz FM
Hamsat 24 Jul 07:48:00 07:51:36 27° 292° (WNW) 07:55:13 145.90 MHz
ISS 24 Jul 07:50:53 07:54:15 71° 215° (SW) 07:57:35 145.800 FM
AO-7 24 Jul 07:51:14 07:56:35 19° 313° (NW) 08:01:56 29.400 - 29.500 MHz
KITSAT 1 24 Jul 07:57:09 08:05:16 81° 303° (WNW) 08:13:26 435.175 FM
JAS-2 24 Jul 08:05:15 08:11:11 43° 294° (WNW) 08:16:29 435.800 - 435.900 CW/SSB, 435.910 FM
MaSat-1 24 Jul 08:06:51 08:12:12 76° 245° (WSW) 08:17:21 437.345 MHz
Sapphire 24 Jul 08:40:23 08:41:16 10° 28° (NNE) 08:42:08 437.095 MHz 1200 baud AX-25 AFSK
HO-68 24 Jul 08:44:11 08:49:29 22° 91° (E) 08:54:45 435.675 MHz FM
Saudisat 1A 24 Jul 08:45:06 08:49:16 42° 118° (ESE) 08:53:27 436.775 MHz
SO-67 24 Jul 08:45:56 08:48:53 26° 290° (WNW) 08:51:50 435.3500 MHz FM
PCSat 24 Jul 09:12:41 09:16:06 17° 37° (NE) 09:19:30 145.825 MHz
